Location: Neuvy Saint Sepulchre
(46.5953°N, 1.8122°E)
Time: 09:28:56
(UTC+02:00)

ISS - Pass Details

Date: 11 July 2021
Orbit: 419 x 421 km, 51.6° (Epoch: 04 August)

Event Time Altitude Azimuth Distance (km) Brightness Sun altitude
Exits shadow 01:18:41 44° 68° (ENE) 589 -3.0 -20.7°
Drops below altitude 10° 01:21:07 10° 64° (ENE) 1,505 -0.8 -20.8°
Sets 01:23:13 0° 64° (ENE) 2,371 0.3 -20.8°
